Regional Weather Roundup
Issued by NWS

Home | Current Version | Previous Version | Graphics & Text | Print | Product List | Glossary On
Versions: 1 2 3 4 5 6 7 8 9 10 11 12 13 14 15 16 17 18 19 20 21 22 23 24 25 26 27 28 29 30 31 32 33 34 35 36 37 38 39 40 41 42 43 44 45 46 47 48 49 50
000
ASUS43 KLOT 240804
RWRIL

ILLINOIS REGIONAL WEATHER ROUNDUP
NATIONAL WEATHER SERVICE CHICAGO/ROMEOVILLE IL
300 AM CDT TUE OCT 24 2017

NOTE: "FAIR" INDICATES FEW OR NO CLOUDS BELOW 12,000 FEET WITH NO
SIGNIFICANT WEATHER AND/OR OBSTRUCTIONS TO VISIBILITY.

* THESE STATIONS ARE NOT UNDER NWS QUALITY CONTROL. THEY ALSO MAY NOT
  REPORT WEATHER SUCH AS PRECIPITATION OR FOG.

ILZ001-002-007-009-015-016-024-240900-
NORTHWEST ILLINOIS

CITY           SKY/WX    TMP DP  RH WIND       PRES   REMARKS
MOLINE         CLOUDY    49  32  52 NW15G23   29.67F
STERLING*      CLOUDY    48  41  76 W15G21      N/A
SAVANNA*       CLOUDY    48  39  71 NW12G22   29.62F
$$

ILZ003-004-008-010-011-017-018-240900-
NORTH CENTRAL ILLINOIS

CITY           SKY/WX    TMP DP  RH WIND       PRES   REMARKS
ROCKFORD       LGT RAIN  47  44  90 NW13      29.59F
FREEPORT*      DRIZZLE   46  42  85 NW15G21   29.61F
ROCHELLE*      CLOUDY    47  44  88 W12       29.59F
$$

ILZ005-006-012>014-019>023-240900-
NORTHEAST ILLINOIS

CITY           SKY/WX    TMP DP  RH WIND       PRES   REMARKS
CHICAGO-OHARE  LGT RAIN  48  45  89 W10       29.54F
CHICAGO-MIDWAY LGT RAIN  49  47  93 W10       29.55F FOG
AURORA         CLOUDY    47  45  93 W10       29.58F
LANSING*       DRIZZLE   48  47  97 W12       29.57F
JOLIET*        CLOUDY    49  46  88 W6        29.59S
WAUKEGAN       LGT RAIN  48  47  96 W5        29.50F
DUPAGE AIRPORT LGT RAIN  47  46  97 W12       29.55F
KANKAKEE*      CLOUDY    47  44  87 W14       29.61F
WHEELING       LGT RAIN  49  47  93 W12       29.54F
NORTHERLY ISL    N/A     49  46  90 W10         N/A
$$

LMZ740>746-240900-
SOUTHERN LAKE MICHIGAN

STATION/POSITION SKY/WX   TEMP    WIND        PRES    VSBY  WAVE
                          AIR SEA DIR/SP/G                  HT/PER
                          (F)     (DEG/KT/KT) (MB)    (MI)  (FT/S)
SOUTHERN BUOY              54 60  320/ 16/ 19  998.7
WILMETTE HARBOR            50 56  260/ 16/ 19   N/A           2/ 5
HARRISON CRIB              50     270/ 17/ 19   N/A
BURNHAM HARBOR             49     260/  8/ 11   N/A
CALUMET HARBOR             49     240/  5/ 11 1000.2F
BURNS HARBOR               51     260/ 15/ 20 1001.0F
MICHIGAN CITY              51     240/ 24/ 27   N/A
MICHIGAN CITY 6N           52 57  270/ 17/ 23   N/A           7/ 5
ST. JOSEPH                 53 58  280/ 19/ 25  999.6F         7/ 5
$$

ILZ025>027-034>036-040-047-049-050-058-095>099-240900-
WEST-CENTRAL ILLINOIS

CITY           SKY/WX    TMP DP  RH WIND       PRES   REMARKS
QUINCY         CLOUDY    51  34  52 W17G23    29.77F
MACOMB*        CLOUDY    49  37  63 W16       29.74F
JACKSONVILLE*  CLOUDY    49  35  58 W14G20    29.75F
$$

ILZ028>032-037-038-041>044-048-051>054-059>061-240900-
CENTRAL ILLINOIS

CITY           SKY/WX    TMP DP  RH WIND       PRES   REMARKS
BLOOMINGTON    CLOUDY    47  40  76 W14       29.67F
DECATUR        CLOUDY    48  41  76 W14G21    29.71F
PEORIA         CLOUDY    49  35  58 W10G21    29.68F
LACON*         CLOUDY    48  38  66 W12G18    29.64F
LINCOLN*       CLOUDY    49  41  74 W9        29.70F
SPRINGFIELD    CLOUDY    50  39  66 W12       29.73F
TAYLORVILLE    CLOUDY    48  38  68 W12G20    29.74F
$$

ILZ033-039-045-046-055>057-062-063-240900-
EAST-CENTRAL ILLINOIS

CITY           SKY/WX    TMP DP  RH WIND       PRES   REMARKS
DANVILLE*      PTCLDY    46  45  93 W12       29.63F
MATTOON        CLEAR     46  44  93 W7        29.71F
PARIS*         CLOUDY    48  46  95 W10       29.70F
$$

ILZ079-100>102-240900-
SOUTHWEST ILLINOIS

CITY           SKY/WX    TMP DP  RH WIND       PRES   REMARKS
ALTON          CLOUDY    49  37  63 W10       29.80F
BELLEVILLE     MOCLDY    51  35  54 NW12G22   29.80S
CAHOKIA*       CLOUDY    54  32  43 W12       29.82F
SPARTA*        MOCLDY    50  39  64 W10G17    29.83F
$$

ILZ064>066-069>071-074>076-080>082-084>086-088>090-092>094-240900-
SOUTH-CENTRAL ILLINOIS

CITY           SKY/WX    TMP DP  RH WIND       PRES   REMARKS
CARBONDALE     CLEAR     51  41  68 W7        29.83F
CAIRO*         PTCLDY    52  40  64 W7        29.87S
EFFINGHAM*     PTCLDY    49  43  79 W10       29.76S
MARION         CLEAR     53  41  64 W5        29.83F
MT. VERNON     CLOUDY    51  44  77 W8        29.79F
CENTRALIA*     CLOUDY    51  45  79 W8        29.78F
SALEM*         CLOUDY    52  41  66 W8        29.78F
METROPOLIS*    CLEAR     54  41  62 W9G20     29.86S
$$

ILZ067-068-072-073-078-083-087-091-240900-
SOUTHEAST ILLINOIS

CITY           SKY/WX    TMP DP  RH WIND       PRES   REMARKS
LAWRENCEVILLE  LGT RAIN  52  52 100 W13       29.74F
FLORA*         MOCLDY    53  44  73 W9        29.77S
FAIRFIELD*     MOCLDY    51  43  75 W3        29.77F
HARRISBURG*    CLEAR     50  45  83 S9        29.82S
ROBINSON*      CLOUDY    49  47  90 W13       29.74F
CARMI*         MOCLDY    51  44  77 W16       29.79S
$$

ABBREVIATIONS USED IN REMARKS
   TC - TEMPERATURE IN CELSIUS
  WCI - WIND CHILL INDEX
   HX - HEAT INDEX
  VSB - VISIBILITY
$$




USA.gov is the U.S. government's official web portal to all federal, state and local government web resources and services.